Regional Weather Roundup
Issued by NWS

Home | Current Version | Previous Version | Graphics & Text | Print | Product List | Glossary On
Versions: 1 2 3 4 5 6 7 8 9 10 11 12 13 14 15 16 17 18 19 20 21 22 23 24 25 26 27 28
000
ASUS45 KBOI 221010
RWRID
WEATHER ROUNDUP FOR IDAHO
NATIONAL WEATHER SERVICE BOISE ID
400 AM MDT TUE APR 22 2014

NOTE: "FAIR" INDICATES FEW OR NO CLOUDS BELOW 12000 FEET
WITH NO SIGNIFICANT WEATHER AND/OR OBSTRUCTIONS TO VISIBILITY

IDZ012-014-221100-
SOUTHWEST IDAHO


CITY           SKY/WX    TMP DP  RH WIND       PRES   REMARKS
BOISE          FAIR      58  30  34 SE8       29.70F
CALDWELL       FAIR      46  34  61 E5        29.72F
MOUNTAIN HOME  FAIR      50  29  43 NE5       29.72F
$$

IDZ016-017-221100-
SOUTHCENTRAL IDAHO


CITY           SKY/WX    TMP DP  RH WIND       PRES   REMARKS
BURLEY         FAIR      53  39  59 W5        29.78F
JEROME         CLOUDY    54  34  46 NE6       29.78F
TWIN FALLS     MOCLDY    56  33  42 W9        29.78F
$$

IDZ019>023-221100-
SOUTHEAST IDAHO


CITY           SKY/WX    TMP DP  RH WIND       PRES   REMARKS
IDAHO FALLS    CLOUDY    57  38  48 SE10      29.89F
POCATELLO      CLOUDY    57  38  48 E9        29.87F
REXBURG        CLOUDY    53  39  59 SE12G21   29.89F
$$

IDZ006-010-011-018-031-032-221100-
CENTRAL IDAHO MOUNTAINS


CITY           SKY/WX    TMP DP  RH WIND       PRES   REMARKS
MCCALL         CLOUDY    40  29  64 CALM      29.73F
HAILEY         CLOUDY    48  30  49 NW6       29.85F
STANLEY          N/A     32  26  78 CALM      29.85F
SALMON         FAIR      43  27  52 SE3       29.76F
CHALLIS        FAIR      45  23  42 CALM      29.79F
$$

IDZ002-004-006-007-026-221100-
NORTHERN IDAHO


CITY           SKY/WX    TMP DP  RH WIND       PRES   REMARKS
LEWISTON       FAIR      56  35  45 W9        29.68F
LOWELL           N/A     42  38  85 NW6       29.73F
COEUR D`ALENE  CLOUDY    48  37  66 NE16      29.68F
MULLAN PASS    CLOUDY    42  25  50 SE10G22   29.74F
$$



USA.gov is the U.S. government's official web portal to all federal, state and local government web resources and services.